Location: Unspecified
(40.7945°N, 111.1337°W)
Time: 06:33:54
(UTC-06:00)

Okean 3 - Pass Details

Date: 30 March 2019
Orbit: 576 x 602 km, 82.5° (Epoch: 23 April)

Event Time Altitude Azimuth Distance (km) Brightness Sun altitude
Exits shadow 05:01:20 43° 147° (SSE) 845 4.2 -24.3°
Maximum altitude 05:02:26 58° 94° (E) 702 4.0 -24.1°
Drops below altitude 10° 05:06:40 10° 16° (NNE) 1,948 6.7 -23.4°
Sets 05:08:54 0° 12° (NNE) 2,854 7.5 -23.0°
